EW4327 Weather Reports


Display with metric or nautical units.
time (UTC)temp
F
wind
direction
speed
MPH
gust
MPH
rain 1hr
in
rain 24hr
in
rain mn
in
humidity
%
barometer
mb
20240520161508 71 57 0.0 4.0 0.00 0.00 0.00 48 1010.0
20240520160006 70 59 0.0 0.0 0.00 0.00 0.00 49 1010.1
20240520154511 71 59 0.0 0.0 0.00 0.00 0.00 49 1010.3
20240520153002 72 69 0.0 2.0 0.00 0.00 0.00 46 1010.5
20240520151501 74 86 0.0 5.0 0.00 0.00 0.00 43 1010.5
20240520150100 74 177 1.0 4.0 0.00 0.00 0.00 46 1010.4
20240520144558 73 178 0.0 3.0 0.00 0.00 0.00 46 1010.4
20240520143108 72 137 1.0 8.0 0.00 0.00 0.00 50 1010.5
20240520141605 72 332 0.0 4.0 0.00 0.00 0.00 49 1010.7
20240520140101 72 341 1.0 3.0 0.00 0.00 0.00 49 1010.9
20240520134551 72 42 1.0 4.0 0.00 0.00 0.00 51 1011.0
20240520133049 72 116 0.0 3.0 0.00 0.00 0.00 47 1011.1
20240520131551 74 331 1.0 6.0 0.00 0.00 0.00 49 1011.4
20240520130050 73 217 0.0 3.0 0.00 0.00 0.00 49 1011.7
20240520124539 72 296 1.0 5.0 0.00 0.00 0.00 53 1011.9
20240520123035 71 86 1.0 5.0 0.00 0.00 0.00 55 1011.9
20240520121532 70 311 0.0 3.0 0.00 0.00 0.00 57 1012.0
20240520120054 69 72 0.0 3.0 0.00 0.00 0.00 57 1012.1
20240520114533 69 5 0.0 0.0 0.00 0.00 0.00 54 1012.3
20240520113030 70 355 0.0 4.0 0.00 0.00 0.00 60 1012.4
20240520111526 69 58 0.0 3.0 0.00 0.00 0.00 55 1012.5
20240520110024 68 213 0.0 4.0 0.00 0.00 0.00 60 1012.5
20240520104523 68 175 0.0 3.0 0.00 0.00 0.00 57 1012.5
20240520103020 67 81 0.0 3.0 0.00 0.00 0.00 65 1012.7
20240520101519 67 346 0.0 3.0 0.00 0.00 0.00 61 1012.7
20240520100018 67 333 1.0 5.0 0.00 0.00 0.00 63 1012.8
20240520094531 68 329 0.0 1.0 0.00 0.00 0.00 59 1012.7
20240520093014 68 312 0.0 0.0 0.00 0.00 0.00 62 1012.8
20240520091511 68 61 0.0 0.0 0.00 0.00 0.00 61 1012.8
20240520090006 67 262 0.0 0.0 0.00 0.00 0.00 64 1012.9
20240520084503 67 34 0.0 0.0 0.00 0.00 0.00 66 1012.8
20240520083059 66 76 0.0 0.0 0.00 0.00 0.00 69 1012.8
20240520081605 65 65 0.0 0.0 0.00 0.00 0.00 69 1012.8
20240520080052 64 57 0.0 0.0 0.00 0.00 0.00 72 1012.7
20240520074548 63 98 0.0 0.0 0.00 0.00 0.00 74 1012.8
20240520073044 61 98 0.0 0.0 0.00 0.00 0.00 75 1012.8
20240520071542 61 98 0.0 0.0 0.00 0.00 0.00 77 1012.8
20240520070041 60 58 0.0 0.0 0.00 0.00 0.00 81 1013.0
20240520064534 59 56 0.0 0.0 0.00 0.00 0.00 83 1012.9
20240520063029 58 56 0.0 0.0 0.00 0.00 0.00 85 1013.0
20240520061524 56 55 0.0 0.0 0.00 0.00 0.00 88 1012.8
20240520060020 54 55 0.0 0.0 0.00 0.00 0.00 89 1012.8
20240520054515 53 54 0.0 0.0 0.00 0.00 0.00 90 1012.9
20240520053015 52 291 0.0 0.0 0.00 0.00 0.00 91 1012.8
20240520051507 50 291 0.0 0.0 0.00 0.00 0.00 91 1012.8
20240520050004 49 279 0.0 0.0 0.00 0.00 0.00 91 1012.7
20240520044500 48 279 0.0 0.0 0.00 0.00 0.00 90 1012.6
20240520043058 47 279 0.0 0.0 0.00 0.00 0.00 90 1012.6
20240520041557 46 279 0.0 0.0 0.00 0.00 0.00 90 1012.8
20240520040055 46 279 0.0 0.0 0.00 0.00 0.00 90 1012.5
20240520034551 45 279 0.0 0.0 0.00 0.00 0.00 89 1012.5
20240520033055 46 279 0.0 0.0 0.00 0.00 0.00 89 1012.5
20240520031550 47 279 0.0 0.0 0.00 0.00 0.00 89 1012.6
20240520030146 47 279 0.0 0.0 0.00 0.00 0.00 89 1012.5
20240520024545 47 279 0.0 0.0 0.00 0.00 0.00 89 1012.4
20240520023042 47 279 0.0 0.0 0.00 0.00 0.00 89 1012.5
20240520021542 47 279 0.0 0.0 0.00 0.00 0.00 89 1012.5
20240520020039 48 279 0.0 0.0 0.00 0.00 0.00 89 1012.4
20240520014542 48 279 0.0 0.0 0.00 0.00 0.00 88 1012.4
20240520013037 48 279 0.0 0.0 0.00 0.00 0.00 88 1012.4
20240520011536 48 279 0.0 0.0 0.00 0.00 0.00 88 1012.4
20240520010035 48 279 0.0 0.0 0.00 0.00 0.00 88 1012.3
20240520004532 49 279 0.0 0.0 0.00 0.00 0.00 88 1012.3
20240520003031 49 279 0.0 0.0 0.00 0.00 0.00 88 1012.3
20240520001529 50 279 0.0 0.0 0.00 0.00 0.00 88 1012.2
20240520000027 50 279 0.0 0.0 0.00 0.00 0.00 88 1012.3
20240519234530 50 279 0.0 0.0 0.00 0.00 0.00 87 1012.4
20240519233026 50 279 0.0 0.0 0.00 0.00 0.00 87 1012.5
20240519231523 50 279 0.0 0.0 0.00 0.00 0.00 86 1012.5
20240519230024 51 279 0.0 0.0 0.00 0.00 0.00 86 1012.4
20240519224519 51 279 0.0 0.0 0.00 0.00 0.00 86 1012.3
20240519223024 52 279 0.0 0.0 0.00 0.00 0.00 86 1012.5
20240519221516 52 279 0.0 0.0 0.00 0.00 0.00 86 1012.4
20240519220011 52 279 0.0 0.0 0.00 0.00 0.00 85 1012.4
20240519214516 52 279 0.0 0.0 0.00 0.00 0.00 85 1012.2
20240519213011 52 279 0.0 0.0 0.00 0.00 0.00 84 1012.2
20240519211509 53 279 0.0 0.0 0.00 0.00 0.00 83 1012.3
20240519210008 53 279 0.0 0.0 0.00 0.00 0.00 83 1012.2
20240519204507 54 279 0.0 0.0 0.00 0.00 0.00 82 1012.0
20240519203008 55 279 0.0 0.0 0.00 0.00 0.00 81 1012.0
20240519201519 55 279 0.0 0.0 0.00 0.00 0.00 80 1011.9
20240519200007 56 279 0.0 0.0 0.00 0.00 0.00 79 1011.8
20240519194505 57 279 0.0 0.0 0.00 0.00 0.00 78 1011.5
20240519193004 58 279 0.0 0.0 0.00 0.00 0.00 77 1011.4
20240519191512 58 279 0.0 0.0 0.00 0.00 0.00 76 1011.3
20240519190004 59 279 0.0 0.0 0.00 0.00 0.00 75 1011.2
20240519184503 60 279 0.0 0.0 0.00 0.00 0.00 73 1011.0
20240519183002 61 279 0.0 0.0 0.00 0.00 0.00 72 1010.9
20240519181504 62 279 0.0 0.0 0.00 0.00 0.00 70 1010.9
20240519180101 62 279 0.0 0.0 0.00 0.00 0.00 69 1010.9
20240519174603 63 249 0.0 0.0 0.00 0.00 0.00 68 1011.0
20240519173107 63 290 0.0 2.0 0.00 0.00 0.00 67 1011.0
20240519171634 64 234 0.0 4.0 0.00 0.00 0.00 67 1011.0
20240519170103 64 306 0.0 5.0 0.00 0.00 0.00 68 1011.0
20240519164558 64 332 1.0 5.0 0.00 0.00 0.00 67 1011.1
20240519163057 64 293 0.0 4.0 0.00 0.00 0.00 66 1010.9